Location: Unspecified
(0.0000°N, 0.0000°E)
Time: 06:35:16
(UTC+00:00)

Vanguard 2 - Pass Details

Date: 14 December 2018
Orbit: 553 x 2939 km, 32.9° (Epoch: 16 June)

Event Time Altitude Azimuth Distance (km) Brightness Sun altitude
Rises 03:38:38 0° 307° (NW) 5,527 - -30.9°
Reaches altitude 10° 03:41:48 10° 308° (NW) 4,785 - -30.2°
Exits shadow 03:49:00 41° 312° (NW) 3,383 10.2 -28.6°
Maximum altitude 03:56:46 85° 37° (NE) 2,833 10.2 -26.8°
Drops below altitude 10° 04:14:56 10° 124° (SE) 5,654 13.0 -22.8°
Sets 04:19:03 0° 124° (SE) 6,532 13.7 -21.8°
